Location: Unspecified
(0.0000°N, 0.0000°E)
Time: 20:53:11
(UTC+00:00)

Tiros 1 despin weight - All Passes

Search period start: 16 September 2019 00:00
Search period end: 26 September 2019 00:00
Orbit: 595 x 642 km, 48.2° (Epoch: 15 September)

Date Brightness Start Highest point End Pass type
(mag) Time Alt. Az. Time Alt. Az. Time Alt. Az.
16 Sep - 09:24:44 10° SSE 09:26:46 13° SE 09:28:48 10° ESE daylight
16 Sep - 11:03:45 10° SW 11:08:14 49° NW 11:12:39 10° NNE daylight
16 Sep - 21:31:44 10° N 21:34:54 19° NE 21:38:07 10° E night (unlit)
16 Sep - 23:12:23 10° WNW 23:16:17 29° SW 23:20:14 10° S night (unlit)
17 Sep - 09:39:14 10° SSW 09:43:24 32° SE 09:47:31 10° ENE daylight
17 Sep - 11:21:33 10° W 11:24:48 19° NW 11:28:00 10° N daylight
17 Sep - 21:47:09 10° NNW 21:51:27 52° NE 21:55:50 10° SE night (unlit)
17 Sep - 23:31:33 10° WSW 23:32:55 11° SW 23:34:17 10° SSW night (unlit)
18 Sep - 09:55:17 10° SW 09:59:56 90° S 10:04:32 10° NE daylight
18 Sep - 20:25:34 10° NE 20:26:35 11° NE 20:27:37 10° ENE night (unlit)
18 Sep - 22:03:40 10° NW 22:07:59 53° SW 22:12:22 10° SSE night (unlit)
19 Sep - 08:31:45 10° S 08:35:03 19° SE 08:38:21 10° E daylight
19 Sep - 10:12:19 10° WSW 10:16:28 32° NW 10:20:35 10° NNE daylight
19 Sep - 20:39:21 10° N 20:43:11 29° NE 20:47:02 10° ESE night (unlit)
19 Sep - 22:21:20 10° W 22:24:34 20° SW 22:27:50 10° S night (unlit)
20 Sep - 08:47:07 10° SSW 08:51:39 49° SE 08:56:06 10° NE daylight
20 Sep - 10:31:04 10° WNW 10:33:04 13° NW 10:35:03 10° NNW daylight
20 Sep - 20:55:18 10° NW 20:59:43 83° NE 21:04:11 10° SE night (unlit)
21 Sep - 07:25:25 10° SSE 07:26:41 11° SE 07:27:56 10° ESE daylight
21 Sep - 09:03:35 10° SW 09:08:10 58° NW 09:12:42 10° NNE daylight
21 Sep - 19:32:06 10° N 19:34:53 16° NE 19:37:42 10° E visible
21 Sep - 21:12:15 10° WNW 21:16:15 34° SW 21:20:19 10° SSE night (unlit)
22 Sep - 07:39:17 10° S 07:43:19 28° SE 07:47:18 10° ENE daylight
22 Sep - 09:21:08 10° WSW 09:24:43 22° NW 09:28:17 10° N daylight
22 Sep - 19:47:15 10° NNW 19:51:26 44° NE 19:55:41 10° ESE visible
22 Sep - 21:30:50 10° WSW 21:32:52 13° SW 21:34:55 10° SSW night (unlit)
23 Sep - 07:55:11 10° SW 07:59:52 78° SE 08:04:30 10° NE daylight
23 Sep - 20:03:37 10° NW 20:07:58 62° SW 20:12:23 10° SSE visible
24 Sep - 06:31:58 10° S 06:34:58 17° SE 06:37:56 10° E daylight
24 Sep - 08:12:04 10° WSW 08:16:24 38° NW 08:20:42 10° NNE daylight
24 Sep - 18:39:34 10° N 18:43:10 24° NE 18:46:47 10° ESE visible
24 Sep - 20:21:05 10° WNW 20:24:32 22° SW 20:28:01 10° S visible
25 Sep - 06:47:06 10° SSW 06:51:34 42° SE 06:55:58 10° ENE daylight
25 Sep - 08:30:21 10° W 08:32:58 15° NW 08:35:36 10° NNW daylight
25 Sep - 18:55:20 10° NNW 18:59:42 70° NE 19:04:07 10° SE visible
